| time (UTC) | temp C | wind direction | speed KPH | gust KPH | rain 1hr cm | rain 24hr cm | rain mn cm | humidity % | barometer mb |
| 20260902173006 | 23 | 198 | 9.7 | 19.3 | 0.00 | 0.66 | 0.66 | 82 | 1015.9 |
| 20260902171513 | 22 | 149 | 9.7 | 19.3 | 0.00 | 0.66 | 0.66 | 84 | 1016.1 |
| 20260902170016 | 22 | 159 | 9.7 | 20.9 | 0.00 | 0.66 | 0.66 | 86 | 1016.1 |
| 20260902164522 | 21 | 202 | 8.0 | 19.3 | 0.00 | 0.66 | 0.66 | 88 | 1016.2 |
| 20260902163028 | 21 | 157 | 11.3 | 25.7 | 0.03 | 0.66 | 0.66 | 93 | 1015.8 |
| 20260902161507 | 20 | 161 | 6.4 | 19.3 | 0.13 | 0.66 | 0.66 | 98 | 1016.3 |
| 20260902160012 | 18 | 136 | 9.7 | 19.3 | 0.20 | 0.66 | 0.66 | 98 | 1016.4 |
| 20260902154533 | 18 | 188 | 4.8 | 19.3 | 0.30 | 0.66 | 0.66 | 98 | 1016.3 |
| 20260902153026 | 18 | 209 | 6.4 | 22.5 | 0.38 | 0.64 | 0.64 | 98 | 1016.2 |
| 20260902151535 | 18 | 217 | 11.3 | 29.0 | 0.36 | 0.53 | 0.53 | 98 | 1016.3 |
| 20260902150010 | 18 | 253 | 8.0 | 22.5 | 0.36 | 0.46 | 0.46 | 98 | 1016.5 |
| 20260902144512 | 18 | 247 | 3.2 | 19.3 | 0.25 | 0.38 | 0.36 | 98 | 1018.1 |
| 20260902143025 | 18 | 220 | 3.2 | 14.5 | 0.18 | 0.28 | 0.25 | 98 | 1018.0 |
| 20260902141535 | 17 | 261 | 6.4 | 17.7 | 0.18 | 0.20 | 0.18 | 98 | 1017.9 |
| 20260902140030 | 17 | 171 | 4.8 | 9.7 | 0.10 | 0.13 | 0.10 | 97 | 1017.8 |
| 20260902134512 | 17 | 173 | 6.4 | 16.1 | 0.10 | 0.13 | 0.10 | 97 | 1017.3 |
| 20260902133020 | 18 | 153 | 8.0 | 14.5 | 0.08 | 0.10 | 0.08 | 97 | 1017.2 |
| 20260902131527 | 18 | 182 | 3.2 | 11.3 | 0.00 | 0.03 | 0.00 | 96 | 1018.0 |
| 20260902130033 | 18 | 154 | 6.4 | 11.3 | 0.00 | 0.03 | 0.00 | 96 | 1017.9 |
| 20260902124531 | 18 | 162 | 1.6 | 8.0 | 0.00 | 0.03 | 0.00 | 97 | 1017.8 |
| 20260902123026 | 18 | 111 | 4.8 | 12.9 | 0.00 | 0.03 | 0.00 | 97 | 1018.0 |
| 20260902121523 | 18 | 128 | 4.8 | 14.5 | 0.00 | 0.03 | 0.00 | 97 | 1017.8 |
| 20260902120028 | 18 | 166 | 4.8 | 16.1 | 0.00 | 0.03 | 0.00 | 97 | 1017.0 |
| 20260902114534 | 18 | 138 | 4.8 | 19.3 | 0.00 | 0.03 | 0.00 | 98 | 1017.1 |
| 20260902113030 | 18 | 153 | 8.0 | 16.1 | 0.00 | 0.03 | 0.00 | 98 | 1017.1 |
| 20260902111534 | 18 | 141 | 9.7 | 20.9 | 0.00 | 0.03 | 0.00 | 98 | 1016.3 |
| 20260902110005 | 18 | 165 | 9.7 | 16.1 | 0.00 | 0.03 | 0.00 | 98 | 1016.4 |
| 20260902104537 | 17 | 146 | 8.0 | 19.3 | 0.00 | 0.03 | 0.00 | 98 | 1016.3 |
| 20260902103017 | 18 | 178 | 8.0 | 16.1 | 0.00 | 0.03 | 0.00 | 98 | 1016.7 |
| 20260902101518 | 17 | 165 | 6.4 | 16.1 | 0.00 | 0.03 | 0.00 | 98 | 1017.1 |
| 20260902100003 | 17 | 180 | 4.8 | 14.5 | 0.00 | 0.03 | 0.00 | 98 | 1017.2 |
| 20260902094503 | 17 | 137 | 8.0 | 16.1 | 0.00 | 0.03 | 0.00 | 98 | 1017.1 |
| 20260902093024 | 17 | 148 | 6.4 | 14.5 | 0.00 | 0.03 | 0.00 | 98 | 1017.3 |
| 20260902091513 | 17 | 149 | 6.4 | 14.5 | 0.00 | 0.05 | 0.00 | 98 | 1017.2 |
| 20260902090020 | 17 | 152 | 6.4 | 16.1 | 0.00 | 0.08 | 0.00 | 98 | 1017.2 |
| 20260902084504 | 17 | 107 | 4.8 | 12.9 | 0.00 | 0.08 | 0.00 | 98 | 1017.4 |
| 20260902083005 | 17 | 134 | 6.4 | 14.5 | 0.00 | 0.08 | 0.00 | 98 | 1017.5 |
| 20260902081510 | 17 | 132 | 4.8 | 12.9 | 0.00 | 0.08 | 0.00 | 97 | 1017.3 |
| 20260902080024 | 17 | 139 | 4.8 | 14.5 | 0.00 | 0.08 | 0.00 | 97 | 1017.4 |
| 20260902074524 | 17 | 157 | 4.8 | 14.5 | 0.00 | 0.10 | 0.00 | 97 | 1017.4 |
| 20260902073016 | 17 | 161 | 6.4 | 16.1 | 0.00 | 0.10 | 0.00 | 97 | 1017.3 |
| 20260902071512 | 17 | 149 | 4.8 | 14.5 | 0.00 | 0.13 | 0.00 | 98 | 1017.1 |
| 20260902070027 | 17 | 160 | 8.0 | 16.1 | 0.00 | 0.28 | 0.00 | 97 | 1017.2 |
| 20260902064524 | 17 | 111 | 6.4 | 12.9 | 0.00 | 0.33 | 0.00 | 98 | 1017.3 |
| 20260902063027 | 17 | 178 | 4.8 | 12.9 | 0.00 | 0.33 | 0.00 | 97 | 1017.3 |
| 20260902061506 | 17 | 142 | 4.8 | 12.9 | 0.00 | 0.33 | 0.00 | 97 | 1017.3 |
| 20260902060010 | 17 | 167 | 1.6 | 8.0 | 0.00 | 0.33 | 0.00 | 97 | 1017.4 |
| 20260902054522 | 17 | 177 | 4.8 | 9.7 | 0.00 | 0.33 | 0.00 | 97 | 1017.3 |
| 20260902053025 | 17 | 194 | 3.2 | 11.3 | 0.00 | 0.33 | 0.00 | 97 | 1017.2 |
| 20260902051528 | 17 | 164 | 3.2 | 8.0 | 0.00 | 0.33 | 0.00 | 97 | 1017.3 |
| 20260902050010 | 17 | 171 | 1.6 | 6.4 | 0.00 | 0.33 | 0.00 | 96 | 1017.4 |
| 20260902044516 | 17 | 171 | 0.0 | 6.4 | 0.00 | 0.33 | 0.00 | 96 | 1017.3 |
| 20260902043029 | 17 | 150 | 1.6 | 9.7 | 0.00 | 0.33 | 0.00 | 96 | 1017.0 |
| 20260902041527 | 17 | 155 | 3.2 | 11.3 | 0.00 | 0.33 | 0.00 | 96 | 1016.9 |
| 20260902040034 | 17 | 186 | 3.2 | 8.0 | 0.00 | 0.33 | 0.00 | 96 | 1016.7 |
| 20260902034512 | 17 | 160 | 3.2 | 8.0 | 0.00 | 0.33 | 0.33 | 96 | 1016.8 |
| 20260902033029 | 17 | 167 | 1.6 | 6.4 | 0.00 | 0.33 | 0.33 | 96 | 1016.9 |
| 20260902031535 | 17 | 182 | 0.0 | 8.0 | 0.00 | 0.33 | 0.33 | 95 | 1016.7 |
| 20260902030027 | 18 | 164 | 4.8 | 12.9 | 0.00 | 0.33 | 0.33 | 95 | 1016.7 |
| 20260902024509 | 18 | 160 | 4.8 | 11.3 | 0.00 | 0.33 | 0.33 | 94 | 1016.8 |
| 20260902023033 | 18 | 158 | 4.8 | 9.7 | 0.00 | 0.33 | 0.33 | 94 | 1016.9 |
| 20260902021531 | 18 | 158 | 1.6 | 8.0 | 0.00 | 0.33 | 0.33 | 94 | 1016.9 |
| 20260902020029 | 19 | 148 | 3.2 | 11.3 | 0.00 | 0.33 | 0.33 | 93 | 1016.9 |
| 20260902014530 | 19 | 166 | 4.8 | 9.7 | 0.00 | 0.33 | 0.33 | 93 | 1017.0 |
| 20260902013012 | 19 | 147 | 1.6 | 12.9 | 0.00 | 0.33 | 0.33 | 92 | 1016.8 |
| 20260902011516 | 20 | 126 | 4.8 | 9.7 | 0.00 | 0.33 | 0.33 | 92 | 1016.5 |
| 20260902010029 | 20 | 174 | 1.6 | 8.0 | 0.00 | 0.33 | 0.33 | 92 | 1016.5 |
| 20260902004530 | 20 | 154 | 1.6 | 8.0 | 0.00 | 0.33 | 0.33 | 92 | 1016.2 |
| 20260902003034 | 20 | 182 | 0.0 | 6.4 | 0.00 | 0.33 | 0.33 | 92 | 1015.9 |
| 20260902001512 | 20 | 167 | 1.6 | 4.8 | 0.00 | 0.33 | 0.33 | 92 | 1015.7 |
| 20260902000030 | 20 | 149 | 0.0 | 9.7 | 0.00 | 0.33 | 0.33 | 91 | 1015.5 |
| 20260901234529 | 21 | 165 | 3.2 | 8.0 | 0.00 | 0.33 | 0.33 | 90 | 1015.6 |
| 20260901233028 | 21 | 150 | 1.6 | 8.0 | 0.00 | 0.33 | 0.33 | 89 | 1015.7 |
| 20260901231531 | 22 | 182 | 3.2 | 4.8 | 0.00 | 0.33 | 0.33 | 89 | 1015.6 |
| 20260901230027 | 22 | 182 | 0.0 | 3.2 | 0.00 | 0.33 | 0.33 | 88 | 1015.6 |
| 20260901224528 | 22 | 131 | 0.0 | 6.4 | 0.00 | 0.33 | 0.33 | 87 | 1015.7 |
| 20260901223031 | 22 | 134 | 0.0 | 9.7 | 0.00 | 0.33 | 0.33 | 87 | 1015.7 |
| 20260901221534 | 22 | 178 | 4.8 | 8.0 | 0.00 | 0.33 | 0.33 | 87 | 1015.6 |
| 20260901220054 | 22 | 112 | 0.0 | 9.7 | 0.00 | 0.33 | 0.33 | 88 | 1015.7 |
| 20260901214523 | 22 | 136 | 4.8 | 8.0 | 0.00 | 0.33 | 0.33 | 88 | 1015.5 |
| 20260901213100 | 22 | 178 | 1.6 | 12.9 | 0.00 | 0.33 | 0.33 | 88 | 1015.5 |
| 20260901211531 | 22 | 205 | 4.8 | 12.9 | 0.00 | 0.33 | 0.33 | 87 | 1015.4 |
| 20260901210031 | 22 | 178 | 4.8 | 11.3 | 0.00 | 0.33 | 0.33 | 87 | 1015.3 |
| 20260901204526 | 22 | 169 | 3.2 | 11.3 | 0.00 | 0.33 | 0.33 | 87 | 1015.4 |
| 20260901203047 | 23 | 170 | 4.8 | 9.7 | 0.00 | 0.33 | 0.33 | 86 | 1015.5 |
| 20260901201528 | 23 | 196 | 1.6 | 4.8 | 0.00 | 0.33 | 0.33 | 86 | 1015.4 |
| 20260901200037 | 23 | 208 | 1.6 | 11.3 | 0.00 | 0.33 | 0.33 | 86 | 1015.4 |
| 20260901194540 | 23 | 150 | 1.6 | 6.4 | 0.00 | 0.33 | 0.33 | 86 | 1015.2 |
| 20260901193021 | 23 | 188 | 1.6 | 4.8 | 0.00 | 0.33 | 0.33 | 86 | 1015.1 |
| 20260901191527 | 22 | 188 | 1.6 | 3.2 | 0.00 | 0.33 | 0.33 | 88 | 1015.2 |
| 20260901190032 | 22 | 188 | 0.0 | 3.2 | 0.00 | 0.33 | 0.33 | 89 | 1015.2 |
| 20260901184534 | 22 | 188 | 0.0 | 6.4 | 0.00 | 0.33 | 0.33 | 88 | 1015.2 |
| 20260901183041 | 22 | 144 | 1.6 | 8.0 | 0.00 | 0.33 | 0.33 | 88 | 1015.1 |
| 20260901181526 | 22 | 182 | 4.8 | 12.9 | 0.00 | 0.33 | 0.33 | 87 | 1015.0 |
| 20260901180031 | 22 | 142 | 1.6 | 8.0 | 0.00 | 0.33 | 0.33 | 88 | 1014.9 |
| 20260901174532 | 23 | 26 | 3.2 | 12.9 | 0.00 | 0.33 | 0.33 | 85 | 1014.9 |